This is the latest recevied weather packets stored in our database for station/object K5FEP. If no packets are shown the sender has not sent any weather packets the latest 10 day(s).
| Time | Temp. | Humidity | Pressure | Rain* | Wind** | Luminosity | Snow |
|---|---|---|---|---|---|---|---|
| 1788302282 | 36.67° C | 35% | 1015.5 hPa | 0 mm | - | 103 W/m² | - |
| 1788301981 | 36.67° C | 35% | 1015.4 hPa | 0 mm | - | 112 W/m² | - |
| 1788301677 | 36.67° C | 35% | 1015.4 hPa | 0 mm | - | 121 W/m² | - |
| 1788301374 | 36.11° C | 36% | 1015.2 hPa | 0 mm | - | 128 W/m² | - |
| 1788301069 | 35.56° C | 38% | 1015.3 hPa | 0 mm | - | 146 W/m² | - |
| 1788300764 | 35.56° C | 37% | 1015.3 hPa | 0 mm | - | 160 W/m² | - |
| 1788300465 | 35.56° C | 37% | 1015.3 hPa | 0 mm | - | 102 W/m² | - |
| 1788300164 | 36.11° C | 36% | 1015.2 hPa | 0 mm | - | 101 W/m² | - |
| 1788299863 | 36.67° C | 35% | 1015.2 hPa | 0 mm | - | 96 W/m² | - |
| 1788299563 | 36.67° C | 34% | 1015.1 hPa | 0 mm | - | 215 W/m² | - |
| 1788299261 | 36.11° C | 34% | 1015.2 hPa | 0 mm | - | 255 W/m² | - |
| 1788298960 | 36.67° C | 34% | 1015.2 hPa | 0 mm | - | 115 W/m² | - |
| 1788298655 | 36.67° C | 33% | 1015.2 hPa | 0 mm | - | 207 W/m² | - |
| 1788298355 | 37.22° C | 33% | 1015.2 hPa | 0 mm | - | 139 W/m² | - |
| 1788298055 | 37.22° C | 33% | 1015.3 hPa | 0 mm | - | 343 W/m² | - |
| 1788297750 | 37.22° C | 33% | 1015.1 hPa | 0 mm | - | 136 W/m² | - |
| 1788297445 | 37.22° C | 34% | 1015.2 hPa | 0 mm | - | 376 W/m² | - |
| 1788297142 | 37.78° C | 33% | 1015.2 hPa | 0 mm | - | 389 W/m² | - |
| 1788296838 | 37.78° C | 33% | 1015.5 hPa | 0 mm | - | 409 W/m² | - |
| 1788296533 | 37.78° C | 32% | 1015.3 hPa | 0 mm | - | 389 W/m² | - |
| 1788296229 | 37.78° C | 33% | 1015.3 hPa | 0 mm | - | 442 W/m² | - |
| 1788295923 | 37.22° C | 34% | 1015.2 hPa | 0 mm | - | 476 W/m² | - |
| 1788295642 | 37.22° C | 34% | 1015.5 hPa | 0 mm | - | 496 W/m² | - |
| 1788295314 | 37.78° C | 33% | 1015.6 hPa | 0 mm | - | 506 W/m² | - |
| 1788295014 | 37.78° C | 35% | 1015.7 hPa | 0 mm | - | 524 W/m² | - |
* Rain latest hour (hover to see other rain measurements)
** Current wind speed in m/s (hover to see current wind gust speed)